2023/07/21 00:00:00, 0.1,20.4
2023/07/21 00:10:00, 0.1,20.4
2023/07/21 00:20:00, 0.1,20.4
2023/07/21 00:30:00, 0.1,20.4
2023/07/21 00:40:00, 0.1,20.4
2023/07/21 00:50:00, 0.1,20.4
2023/07/21 01:00:00, 0.1,20.2
2023/07/21 01:10:00, 0.1,20.4
2023/07/21 01:20:00, 0.1,20.3
2023/07/21 01:30:00, 0.1,20.3
2023/07/21 01:40:00, 0.1,20.2
2023/07/21 01:50:00, 0.1,19.9
2023/07/21 02:00:00, 0.1,19.8
2023/07/21 02:10:00, 0.1,19.8
2023/07/21 02:20:00, 0.1,19.7
2023/07/21 02:30:00, 0.8,19.8
2023/07/21 02:40:00,14.0,19.7
2023/07/21 02:50:00,15.1,19.5
2023/07/21 03:00:00,14.7,19.5
2023/07/21 03:10:00,14.6,19.4
2023/07/21 03:20:00,14.6,19.4
2023/07/21 03:30:00,14.6,19.1
2023/07/21 03:40:00,14.7,19.3
2023/07/21 03:50:00,14.9,19.0
2023/07/21 04:00:00,15.4,18.8
2023/07/21 04:10:00,15.7,18.9
2023/07/21 04:20:00,16.2,18.8
2023/07/21 04:30:00,16.5,18.4
2023/07/21 04:40:00,16.8,18.3
2023/07/21 04:50:00,17.2,18.6
2023/07/21 05:00:00,17.6,18.6
2023/07/21 05:10:00,17.3,18.6
2023/07/21 05:20:00,16.8,18.3
2023/07/21 05:30:00,17.3,18.7
2023/07/21 05:40:00,17.2,18.7
2023/07/21 05:50:00,16.7,19.0
2023/07/21 06:00:00,16.2,19.1
2023/07/21 06:10:00,16.0,19.2
2023/07/21 06:20:00,15.7,19.4
2023/07/21 06:30:00,15.2,19.5
2023/07/21 06:40:00,15.1,19.7
2023/07/21 06:50:00,15.1,20.2
2023/07/21 07:00:00,14.9,20.5
2023/07/21 07:10:00,14.7,21.2
2023/07/21 07:20:00,14.8,21.4
2023/07/21 07:30:00,14.9,22.0
2023/07/21 07:40:00,14.9,22.1
2023/07/21 07:50:00,15.0,22.4
2023/07/21 08:00:00,14.8,23.1
2023/07/21 08:10:00,14.8,23.1
2023/07/21 08:20:00,14.7,22.9
2023/07/21 08:30:00,14.7,23.3
2023/07/21 08:40:00,14.5,24.4
2023/07/21 08:50:00,14.5,24.3
2023/07/21 09:00:00,14.5,25.6
2023/07/21 09:10:00,13.2,26.1
2023/07/21 09:20:00, 3.9,26.1
2023/07/21 09:30:00, 0.0,27.0
2023/07/21 09:40:00, 0.0,27.6
2023/07/21 09:50:00, 0.2,27.6
2023/07/21 10:00:00,14.1,28.8
2023/07/21 10:10:00,13.0,29.1
2023/07/21 10:20:00, 0.2,29.9
2023/07/21 10:30:00, 0.1,30.4
2023/07/21 10:40:00, 0.1,30.2
2023/07/21 10:50:00, 0.1,30.4
2023/07/21 11:00:00, 0.1,31.4
2023/07/21 11:10:00, 0.1,31.1
2023/07/21 11:20:00, 0.1,31.6
2023/07/21 11:30:00, 0.1,32.1
2023/07/21 11:40:00, 0.1,31.6
2023/07/21 11:50:00, 0.1,31.7
2023/07/21 12:00:00, 0.2,32.1
2023/07/21 12:10:00, 0.4,32.4
2023/07/21 12:20:00,17.6,32.5
2023/07/21 12:30:00,16.8,31.5
2023/07/21 12:40:00,16.3,32.6
2023/07/21 12:50:00,15.9,32.2
2023/07/21 13:00:00,15.4,32.3
2023/07/21 13:10:00,15.3,32.4
2023/07/21 13:20:00,15.5,32.4
2023/07/21 13:30:00,15.6,32.1
2023/07/21 13:40:00,15.6,32.8
2023/07/21 13:50:00,15.8,32.2
2023/07/21 14:00:00,15.7,31.9
2023/07/21 14:10:00,15.4,32.2
2023/07/21 14:20:00,15.2,32.1
2023/07/21 14:30:00,15.3,32.3
2023/07/21 14:40:00,15.4,32.0
2023/07/21 14:50:00,15.2,31.9
2023/07/21 15:00:00,15.2,31.6
2023/07/21 15:10:00,15.1,31.8
2023/07/21 15:20:00,15.0,31.4
2023/07/21 15:30:00,14.8,31.2
2023/07/21 15:40:00,14.6,31.2
2023/07/21 15:50:00,14.0,31.4
2023/07/21 16:00:00,10.6,31.0
2023/07/21 16:10:00, 6.6,31.2
2023/07/21 16:20:00,12.3,30.6
2023/07/21 16:30:00,13.1,31.0
2023/07/21 16:40:00,13.1,31.2
2023/07/21 16:50:00, 6.7,30.8
2023/07/21 17:00:00, 6.6,30.8
2023/07/21 17:10:00, 0.2,30.2
2023/07/21 17:20:00, 0.2,30.2
2023/07/21 17:30:00, 0.2,30.5
2023/07/21 17:40:00, 0.0,29.6
2023/07/21 17:50:00, 0.0,29.3
2023/07/21 18:00:00, 0.0,27.6
2023/07/21 18:10:00, 0.0,27.0
2023/07/21 18:20:00, 0.0,26.7
2023/07/21 18:30:00, 0.0,26.2
2023/07/21 18:40:00, 0.0,25.8
2023/07/21 18:50:00, 0.0,25.5
2023/07/21 19:00:00, 0.0,25.1
2023/07/21 19:10:00, 0.0,25.2
2023/07/21 19:20:00, 0.1,24.8
2023/07/21 19:30:00, 0.1,24.5
2023/07/21 19:40:00, 0.1,24.4
2023/07/21 19:50:00, 0.1,24.2
2023/07/21 20:00:00, 0.1,24.0
2023/07/21 20:10:00, 0.0,23.8
2023/07/21 20:20:00, 0.1,23.7
2023/07/21 20:30:00, 0.0,23.5
2023/07/21 20:40:00, 0.0,23.2
2023/07/21 20:50:00, 0.1,23.4
2023/07/21 21:00:00, 0.1,23.0
2023/07/21 21:10:00, 0.0,22.6
2023/07/21 21:20:00, 0.0,22.8
2023/07/21 21:30:00, 0.0,22.8
2023/07/21 21:40:00, 0.0,22.4
2023/07/21 21:50:00, 0.1,22.4
2023/07/21 22:00:00, 0.1,22.5
2023/07/21 22:10:00, 0.1,22.2
2023/07/21 22:20:00, 0.1,22.2
2023/07/21 22:30:00, 0.0,22.1
2023/07/21 22:40:00, 0.0,22.1
2023/07/21 22:50:00, 0.0,21.8
2023/07/21 23:00:00, 0.0,21.9
2023/07/21 23:10:00, 0.0,22.1
2023/07/21 23:20:00, 0.0,21.7
2023/07/21 23:30:00, 0.0,21.8
2023/07/21 23:40:00, 0.0,21.8
2023/07/21 23:50:00, 0.0,21.6
